Tacoma Narrows, WA
on Wednesday, November 21, 2012

Wednesday
Previous Day Next Day
Daily Summary
 ActualAverageRecord
Temperature
Mean Temperature °F °F  
Max Temperature 48°F 47°F 55°F (2002)
Min Temperature 42°F 39°F 32°F (2010)
Degree Days
Heating Degree Days 20    
Moisture
Dew Point 39°F   
Average Humidity 82    
Maximum Humidity 87    
Minimum Humidity 71    
Precipitation
Precipitation 0.49 in in in ()
Wind
Wind Speed 11 mph   
Max Wind Speed 24 mph   
Max Gust Speed 40 mph   
Visibility 9 miles   
Events Rain   
Averages and records for this station are not official NWS values.
Key: T is trace of precipitation, MM is missing value
Source: NWS Daily Summary
Seasonal Weather Averages
Time(PST)TemperatureDew PointHumidity Pressure Visibility Wind DirectionWind SpeedGust SpeedPrecipitationEvents Conditions
12:53 AM 45.0°F 39.0°F 80% 29.53 in 10.0 miles Calm Calm - 0.00 in Rain Light Rain
1:53 AM 45.0°F 39.9°F 82% 29.53 in 10.0 miles Calm Calm - 0.06 in Rain Light Rain
2:53 AM 46.0°F 41.0°F 83% 29.55 in 10.0 miles South 9.2 mph - 0.00 in Rain Light Rain
3:41 AM 48.2°F 39.2°F 71% 29.55 in 10.0 miles South 15.0 mph 24.2 mph N/A   Overcast
3:53 AM 46.9°F 39.9°F 77% 29.56 in 10.0 miles South 19.6 mph 26.5 mph 0.00 in Rain Light Rain
4:53 AM 46.9°F 39.0°F 74% 29.58 in 10.0 miles South 20.7 mph 34.5 mph 0.01 in Rain Light Rain
5:11 AM 44.6°F 39.2°F 81% 29.58 in 6.0 miles South 24.2 mph 40.3 mph 0.03 in Rain Light Rain
5:53 AM 43.0°F 37.9°F 82% 29.68 in 7.0 miles SSW 15.0 mph 25.3 mph 0.06 in Rain Light Rain
6:53 AM 43.0°F 39.0°F 86% 29.72 in 10.0 miles SSW 13.8 mph 21.9 mph 0.06 in   Mostly Cloudy
7:45 AM 42.8°F 39.2°F 87% 29.76 in 10.0 miles South 15.0 mph - N/A   Scattered Clouds
7:53 AM 44.1°F 37.9°F 79% 29.77 in 10.0 miles South 16.1 mph 25.3 mph N/A   Scattered Clouds
8:53 AM 42.8°F 39.2°F 87% 29.81 in 4.0 miles SW 5.8 mph - N/A Rain Light Rain
9:53 AM 44.1°F 39.9°F 85% 29.84 in 10.0 miles SSW 8.1 mph - 0.03 in   Overcast
10:53 AM 43.0°F 39.0°F 86% 29.87 in 4.0 miles SSW 19.6 mph 25.3 mph 0.15 in Rain Light Rain
11:53 AM 44.1°F 39.0°F 82% 29.88 in 10.0 miles South 15.0 mph 23.0 mph 0.06 in   Overcast
12:17 PM 44.6°F 39.2°F 81% 29.88 in 10.0 miles South 17.3 mph 25.3 mph N/A   Mostly Cloudy
12:53 PM 45.0°F 37.9°F 76% 29.90 in 10.0 miles South 19.6 mph 27.6 mph 0.00 in   Overcast
1:21 PM 44.6°F 39.2°F 81% 29.92 in 10.0 miles SSW 12.7 mph 21.9 mph 0.01 in Rain Light Rain
1:53 PM 45.0°F 39.9°F 82% 29.94 in 10.0 miles South 16.1 mph 20.7 mph 0.01 in   Overcast
2:53 PM 44.1°F 39.0°F 82% 29.98 in 5.0 miles SSW 9.2 mph 17.3 mph 0.05 in Rain Light Rain
3:53 PM 44.1°F 37.9°F 79% 30.04 in 10.0 miles SSW 12.7 mph 21.9 mph 0.00 in   Overcast
4:00 PM 42.8°F 37.4°F 81% 30.04 in 10.0 miles SSW 11.5 mph - N/A   Mostly Cloudy
4:53 PM 43.0°F 37.9°F 82% 30.08 in 10.0 miles SSW 11.5 mph 21.9 mph N/A   Scattered Clouds
5:53 PM 44.1°F 39.0°F 82% 30.11 in 10.0 miles South 12.7 mph 24.2 mph N/A   Clear
6:53 PM 43.0°F 37.9°F 82% 30.16 in 10.0 miles SSW 9.2 mph 18.4 mph N/A   Clear
7:53 PM 43.0°F 37.9°F 82% 30.19 in 10.0 miles South 12.7 mph - N/A   Mostly Cloudy
8:53 PM 43.0°F 37.9°F 82% 30.23 in 10.0 miles South 12.7 mph - N/A   Clear
9:53 PM 42.1°F 37.9°F 85% 30.26 in 10.0 miles South 11.5 mph - N/A   Clear
10:53 PM 42.1°F 37.0°F 82% 30.28 in 10.0 miles South 11.5 mph - N/A   Clear
11:53 PM 42.1°F 37.9°F 85% 30.30 in 10.0 miles South 6.9 mph - N/A   Clear
Moon Phase
Nov. 21 Nov. 28 Dec. 06 Dec. 13 Dec. 20
Sunrise:07:23 AM (PST) Moon Rise:01:09 PM (PST)11/21
Sunset:04:28 PM (PST) Moon Set:12:23 AM (PST)11/21

Copyright © 2014 The Weather Underground, Inc.